TIME,DELAY(SENSOR),PRES,OXYGEN,RAWTEMP,T(OPTODE),TCPHASE,FLUOR,BETA(BETA700),BETA(BETA412),BETA(BETA440),CDOM,C(CSC),ED(ED412.40),ED(ED444.00),ED(ED489.70),ED(ED554.30),LU(LU411.80),LU(LU443.40),LU(LU489.60),LU(LU554.10),COMP,TILTX,TILTY,CHECK
1382155156,5804,818.5300292968750000,49.3167495727539060,656.3859863281250000,4.7468781471252440,53.5970802307128900,53,99,84,79,78,15260,2147754294,2147425060,2148015040,2147874349,2147639926,2147060150,2148263533,2147198217,1151,4,13,6431
1382158752,5808,879.0499877929688000,54.9796905517578100,662.8280029296875000,4.5348258018493650,52.9039115905761700,52,97,83,79,79,15263,2147754953,2147425645,2148015286,2147873572,2147641179,2147055707,2148261302,2147199926,3405,4,13,53133
1382162352,5807,891.3400268554688000,55.7892799377441400,664.6237182617188000,4.4756360054016110,52.8214607238769500,52,97,84,79,77,15262,2147752109,2147427977,2148013037,2147875392,2147640868,2147052416,2148261842,2147198665,222,4,13,4503
1382165952,5809,911.2399902343750000,56.3286705017089840,666.8176879882812000,4.4032630920410160,52.7749900817871100,51,97,84,77,79,15263,2147753664,2147426578,2148011556,2147871817,2147644306,2147054500,2148262848,2147201545,1020,3,13,36028
1382169552,5807,922.6300048828125000,56.5345497131347660,668.0991210937500000,4.3609728813171390,52.7636795043945300,52,98,85,79,79,15266,2147756854,2147424045,2148015899,2147873627,2147639963,2147051401,2148264978,2147199314,3382,4,13,62965
1382173152,5811,921.5499877929688000,56.5122299194335940,668.2755737304688000,4.3551430702209470,52.7697105407714840,52,95,87,77,77,15261,2147757522,2147422610,2148014189,2147870400,2147639533,2147050130,2148267629,2147197970,74,4,13,26376
1382176752,5809,954.3499755859375000,57.0775108337402340,670.3745727539062000,4.2858219146728520,52.7226715087890600,51,96,82,78,79,15260,2147755867,2147423862,2148015378,2147874779,2147642797,2147055012,2148263003,2147193069,3155,4,13,27918
1382180352,5811,962.9000244140625000,56.9775390625000000,669.1068115234375000,4.3277001380920410,52.7198181152343750,52,98,83,78,78,15264,2147751853,2147426834,2148013275,2147875702,2147641517,2147056374,2148264475,2147200265,3522,4,13,42536
1382183952,5810,963.6900024414062000,56.3097610473632800,669.0078735351562000,4.3309650421142580,52.8060493469238300,52,96,90,77,79,15263,2147752978,2147424795,2148014802,2147872365,2147637970,2147056420,2148264338,2147198985,3589,4,13,65338
1382187552,5812,987.5000000000000000,57.0307312011718750,671.0853271484375000,4.2623391151428220,52.7408905029296900,52,100,86,78,78,15263,2147755245,2147426377,2148015936,2147874413,2147639122,2147054957,2148262116,2147200512,273,4,13,59459
1382191152,5808,986.2700195312500000,57.5440597534179700,672.2487182617188000,4.2238860130310060,52.6887092590332000,52,96,84,78,79,15262,2147753947,2147424384,2148015908,2147874779,2147640000,2147057883,2148267218,2147197942,3342,4,13,10238
1382194752,5811,985.3699951171875000,57.7432899475097660,673.2443847656250000,4.1909618377685550,52.6788101196289060,53,97,85,80,79,15261,2147753545,2147421540,2148014116,2147870811,2147644635,2147054729,2148259931,2147198555,221,4,13,21024
1382198352,5811,979.9099731445312000,57.7579917907714840,673.4995117187500000,4.1825280189514160,52.6754188537597660,52,99,83,78,78,15260,2147754706,2147423232,2148014363,2147871369,2147641517,2147057764,2148268041,2147196690,266,4,13,23503
1382201952,5810,971.6699829101562000,58.5165290832519500,675.3920288085938000,4.1199150085449220,52.6063003540039060,52,98,82,80,78,15255,2147755090,2147426706,2148014939,2147875053,2147645494,2147055552,2148266550,2147196425,3332,4,13,63677
1382205552,5810,990.4099731445312000,58.6505699157714840,674.9008178710938000,4.1361680030822750,52.5825119018554700,52,96,86,77,77,15255,2147755465,2147422436,2148014244,2147874130,2147645906,2147054793,2148261979,2147198966,3106,4,13,60679
1382209152,5809,989.2299804687500000,57.8832206726074200,674.2531127929688000,4.1575999259948730,52.6755790710449200,52,100,85,78,79,15253,2147756900,2147423286,2148012141,2147875337,2147641709,2147058349,2148267803,2147197952,333,4,13,39185
1382212752,5807,981.9699707031250000,57.8143081665039060,673.6715698242188000,4.1768341064453125,52.6733016967773440,52,96,85,78,77,15252,2147751862,2147425225,2148013760,2147870921,2147643492,2147051766,2148264402,2147198290,3586,3,13,59497
1382216352,5811,985.1199951171875000,57.9206199645996100,674.8231811523438000,4.1387372016906740,52.6753501892089840,51,97,86,77,79,15256,2147756644,2147426276,2148014262,2147872283,2147643620,2147056365,2148261842,2147197632,3461,4,13,42449
1382219952,5809,992.8200073242188000,57.5875015258789060,674.2968139648438000,4.1561551094055180,52.7102394104003900,52,98,86,78,78,15253,2147758537,2147425737,2148014674,2147873508,2147644361,2147053366,2148264320,2147195510,620,4,13,47814
1382223552,5809,992.9000244140625000,57.7643089294433600,674.0546264648438000,4.1641650199890140,52.6835403442382800,52,96,85,80,78,15253,2147755529,2147422281,2148012745,2147876388,2147640850,2147051492,2148267602,2147198509,247,4,13,57421
1382227152,5809,998.4199829101562000,57.9343910217285160,672.8782958984375000,4.2030701637268070,52.6479492187500000,52,96,81,79,79,15255,2147755629,2147424393,2148013421,2147873106,2147644160,2147057014,2148267565,2147193947,2704,4,13,50232
1382230752,5809,1000.6900024414062000,57.6508903503418000,672.1676025390625000,4.2265658378601070,52.6747894287109400,53,97,86,77,79,15249,2147751625,2147423460,2148011849,2147876224,2147644013,2147053110,2148262052,2147198912,127,4,13,57012
1382234352,5809,997.1199951171875000,56.9773712158203100,672.1608886718750000,4.2267880439758300,52.7623100280761700,53,97,83,79,79,15252,2147755291,2147423826,2148010706,2147877037,2147644516,2147056978,2148268205,2147199853,2902,4,13,63846
1382237952,5806,985.7700195312500000,57.4934501647949200,673.2255249023438000,4.1915888786315920,52.7120590209960940,52,96,85,78,78,15239,2147753746,2147425234,2148014244,2147875008,2147641956,2147056722,2148268644,2147197494,3162,4,13,5023
1382241552,5810,996.8900146484375000,57.6227798461914060,673.2888183593750000,4.1894950866699220,52.6961097717285160,51,96,88,79,79,15244,2147756873,2147425792,2148013394,2147871954,2147642194,2147056073,2148266514,2147198665,124,4,13,18166
1382245152,5809,994.4000244140625000,57.3084106445312500,673.4744262695312000,4.1833567619323730,52.7364196777343750,52,96,82,79,78,15242,2147753097,2147424219,2148014985,2147873179,2147641024,2147059410,2148261933,2147197440,10,4,13,39398
1382248752,5810,987.0100097656250000,57.7835617065429700,674.6710815429688000,4.1437702178955080,52.6904983520507800,51,98,86,80,79,15229,2147755776,2147425526,2148012964,2147874240,2147640996,2147052973,2148269796,2147198381,3360,4,13,4980
1382252352,5810,992.1400146484375000,58.4971809387207000,674.9583129882812000,4.1342658996582030,52.6044387817382800,52,96,86,78,78,15233,2147755949,2147423588,2148011611,2147873106,2147638875,2147054866,2148264045,2147195885,254,4,13,22756
1382255952,5811,987.0399780273438000,57.9347305297851560,675.1867065429688000,4.1267089843750000,52.6783790588378900,52,96,84,77,78,15238,2147757074,2147422985,2148013577,2147873920,2147641362,2147058715,2148271634,2147196224,3585,4,13,43725
1382259552,5810,986.4299926757812000,58.2015686035156250,675.3284301757812000,4.1220188140869140,52.6459007263183600,52,99,80,77,79,15235,2147752448,2147422262,2148011922,2147873700,2147641462,2147054518,2148270619,2147197668,249,4,13,22414
1382263152,5805,998.8400268554688000,58.2169685363769500,674.0349121093750000,4.1648201942443850,52.6288681030273440,52,95,84,78,78,15236,2147755044,2147423478,2148011785,2147874468,2147638985,2147056512,2148265956,2147193280,3494,4,13,2393
1382266752,5810,991.0200195312500000,57.5523605346679700,674.4074707031250000,4.1524930000305180,52.7152900695800800,53,97,86,78,78,15231,2147758098,2147425289,2148012507,2147871707,2147639250,2147056164,2148266669,2147197824,3166,4,13,43725
1382270352,5809,995.2700195312500000,57.6394691467285160,673.8607788085938000,4.1705741882324220,52.6959495544433600,52,97,84,79,80,15237,2147753618,2147425380,2148013138,2147876022,2147641910,2147050605,2148265536,2147195108,3542,4,13,49744
1382273952,5810,1003.9699707031250000,57.7726593017578100,672.9187011718750000,4.2017331123352050,52.6715888977050800,52,96,84,79,78,15234,2147756992,2147424356,2148015597,2147874038,2147641728,2147060022,2148264978,2147196096,3475,4,13,61599
1382277552,5811,999.7100219726562000,57.1439895629882800,672.1608276367188000,4.2267909049987790,52.7423896789550800,52,99,85,78,78,15235,2147755273,2147422656,2148012516,2147870454,2147640064,2147056201,2148267200,2147200694,3453,3,13,835
1382281152,5808,991.9199829101562000,56.8751106262207000,673.2813720703125000,4.1897368431091310,52.7869415283203100,52,97,84,77,78,15232,2147754898,2147424091,2148012992,2147875913,2147641947,2147052516,2148264758,2147196379,959,4,13,28873
1382284752,5807,997.5999755859375000,56.7693901062011700,673.6325073242188000,4.1781268119812010,52.8082008361816400,52,95,84,76,78,15236,2147755556,2147425042,2148012269,2147875840,2147640420,2147056338,2148264859,2147196589,3386,4,13,24572
1382288352,5807,993.4400024414062000,57.7569198608398440,674.8947753906250000,4.1363677978515625,52.6975593566894500,52,97,88,78,79,15233,2147754459,2147422921,2148013220,2147873161,2147638912,2147058861,2148267273,2147199424,3488,4,13,64900
1382291952,5806,1000.6300048828125000,57.6022987365722660,673.5880737304688000,4.1795978546142580,52.6974906921386700,52,95,84,78,78,15234,2147752530,2147423122,2148013110,2147874368,2147640502,2147055168,2148265042,2147196498,3581,4,13,47530
1382295552,5807,1001.7000122070312000,57.6132888793945300,674.1881713867188000,4.1597461700439450,52.7038307189941400,52,98,85,78,79,15235,2147752960,2147426368,2148011163,2147875876,2147638592,2147059776,2148266706,2147200109,3564,3,13,28034
1382298956,5810,992.1199951171875000,57.5651016235351560,674.4984741210938000,4.1494808197021480,52.7178115844726560,51,95,85,80,79,15263,2147754422,2147423926,2148012937,2147875437,2147641572,2147051940,2148266459,2147194688,201,4,13,47694
